When you browse on this site, cookies collect data to enhance your experience and personalize the content and advertising you see.
Visit our Privacy Policy to learn more. By continuing to use the site, you agree to this use of cookies and data.
  • In Hungary
  • List of Countries
  • For 7 days
  • Water Temperature
  • Satellite Maps
  • Weather Map
  • News
  • Weather Widgets
  • user-avatar
    Login

    Hourly Weather Nagano

    Today, 18 November, Sunday

    Time Temperature Precipitation Wind Pressure Humidity
    00:00 +5°C° 0 mm 0 mps 695 mmHg 88%
    01:00 +5°C° 0 mm 0 mps 695 mmHg 88%
    02:00 +5°C° 0 mm 0 mps 695 mmHg 88%
    03:00 +5°C° 0 mm 0 mps 695 mmHg 88%
    04:00 +5°C° 0 mm 0 mps 695 mmHg 88%
    05:00 +5°C° 0 mm 0 mps 696 mmHg 88%
    06:00 +5°C° 0 mm 0 mps 696 mmHg 88%
    07:00 +7°C° 0 mm 1 mps 696 mmHg 81%
    08:00 +9°C° 0 mm 1 mps 696 mmHg 74%
    09:00 +11°C° 0 mm 1 mps 697 mmHg 67%
    10:00 +12°C° 0 mm 1 mps 696 mmHg 60%
    11:00 +13°C° 0 mm 1 mps 696 mmHg 54%
    12:00 +14°C° 0 mm 1 mps 696 mmHg 47%
    13:00 +14°C° 0 mm 1 mps 696 mmHg 49%
    14:00 +14°C° 0 mm 1 mps 695 mmHg 51%
    15:00 +13°C° 0 mm 2 mps 694 mmHg 54%
    16:00 +12°C° 0 mm 1 mps 694 mmHg 62%
    17:00 +10°C° 0 mm 1 mps 694 mmHg 69%
    18:00 +9°C° 0 mm 1 mps 694 mmHg 77%
    19:00 +9°C° 0 mm 1 mps 694 mmHg 78%
    20:00 +9°C° 0 mm 1 mps 694 mmHg 79%
    21:00 +9°C° 0 mm 1 mps 694 mmHg 80%
    22:00 +9°C° 0.1 mm 1 mps 694 mmHg 79%
    23:00 +9°C° 0.1 mm 1 mps 694 mmHg 79%

    Tomorrow, 19 November, Monday

    Time Temperature Precipitation Wind Pressure Humidity
    00:00 +9°C° 0.1 mm 1 mps 693 mmHg 78%
    01:00 +9°C° 0.1 mm 1 mps 693 mmHg 78%
    02:00 +8°C° 0.1 mm 1 mps 693 mmHg 79%
    03:00 +8°C° 0.1 mm 1 mps 693 mmHg 79%
    04:00 +8°C° 0.2 mm 1 mps 693 mmHg 79%
    05:00 +8°C° 0.2 mm 1 mps 693 mmHg 80%
    06:00 +8°C° 0.2 mm 1 mps 692 mmHg 80%
    07:00 +9°C° 0.2 mm 1 mps 693 mmHg 79%
    08:00 +9°C° 0.2 mm 1 mps 693 mmHg 78%
    09:00 +9°C° 0.2 mm 2 mps 693 mmHg 76%
    10:00 +10°C° 0.1 mm 2 mps 693 mmHg 72%
    11:00 +12°C° 0.1 mm 2 mps 693 mmHg 68%
    12:00 +12°C° 0.1 mm 2 mps 693 mmHg 64%
    13:00 +12°C° 0.1 mm 2 mps 693 mmHg 65%
    14:00 +12°C° 0.1 mm 2 mps 692 mmHg 65%
    15:00 +10°C° 0.1 mm 3 mps 692 mmHg 66%
    16:00 +9°C° 0.1 mm 3 mps 692 mmHg 71%
    17:00 +8°C° 0.1 mm 2 mps 693 mmHg 76%
    18:00 +7°C° 0.1 mm 2 mps 693 mmHg 81%
    19:00 +6°C° 0 mm 2 mps 693 mmHg 82%
    20:00 +6°C° 0 mm 2 mps 693 mmHg 83%
    21:00 +5°C° 0 mm 2 mps 693 mmHg 84%
    22:00 +5°C° 0 mm 2 mps 694 mmHg 84%
    23:00 +4°C° 0 mm 2 mps 694 mmHg 84%

    Day after tomorrow, 20 November, Tuesday

    Time Temperature Precipitation Wind Pressure Humidity
    00:00 +5°C° 0 mm 1 mps 694 mmHg 84%
    01:00 +5°C° 0 mm 1 mps 694 mmHg 84%
    02:00 +4°C° 0 mm 1 mps 694 mmHg 84%
    03:00 +4°C° 0 mm 1 mps 694 mmHg 84%
    04:00 +3°C° 0 mm 1 mps 694 mmHg 83%
    05:00 +3°C° 0 mm 1 mps 694 mmHg 82%
    06:00 +3°C° 0 mm 1 mps 694 mmHg 81%
    07:00 +4°C° 0 mm 1 mps 695 mmHg 74%
    08:00 +6°C° 0 mm 1 mps 696 mmHg 67%
    09:00 +7°C° 0 mm 1 mps 696 mmHg 60%
    10:00 +8°C° 0 mm 1 mps 696 mmHg 54%
    11:00 +10°C° 0 mm 1 mps 696 mmHg 48%
    12:00 +10°C° 0 mm 2 mps 696 mmHg 42%
    13:00 +10°C° 0 mm 2 mps 696 mmHg 43%
    14:00 +9°C° 0 mm 2 mps 696 mmHg 44%
    15:00 +9°C° 0 mm 2 mps 696 mmHg 45%
    16:00 +8°C° 0 mm 1 mps 696 mmHg 53%
    17:00 +6°C° 0 mm 1 mps 696 mmHg 60%
    18:00 +4°C° 0 mm 1 mps 697 mmHg 68%
    19:00 +4°C° 0 mm 1 mps 697 mmHg 70%
    20:00 +4°C° 0 mm 1 mps 697 mmHg 71%
    21:00 +2°C° 0 mm 0 mps 697 mmHg 73%
    22:00 +2°C° 0 mm 0 mps 697 mmHg 72%
    23:00 +3°C° 0 mm 1 mps 697 mmHg 72%

    21 November, Wednesday

    Time Temperature Precipitation Wind Pressure Humidity
    00:00 +3°C° 0 mm 1 mps 697 mmHg 72%
    01:00 +3°C° 0 mm 1 mps 697 mmHg 72%
    02:00 +3°C° 0 mm 1 mps 697 mmHg 71%
    03:00 +2°C° 0 mm 1 mps 697 mmHg 71%
    04:00 +2°C° 0 mm 1 mps 697 mmHg 70%
    05:00 +2°C° 0 mm 1 mps 697 mmHg 69%
    06:00 +2°C° 0 mm 1 mps 697 mmHg 68%
    07:00 +5°C° 0 mm 1 mps 698 mmHg 59%
    08:00 +7°C° 0 mm 1 mps 698 mmHg 51%
    09:00 +9°C° 0 mm 1 mps 699 mmHg 43%
    10:00 +11°C° 0 mm 1 mps 699 mmHg 38%
    11:00 +12°C° 0 mm 1 mps 698 mmHg 33%
    12:00 +14°C° 0 mm 1 mps 698 mmHg 29%
    13:00 +13°C° 0 mm 1 mps 698 mmHg 31%
    14:00 +13°C° 0 mm 1 mps 697 mmHg 32%
    15:00 +13°C° 0 mm 1 mps 697 mmHg 34%
    16:00 +11°C° 0 mm 1 mps 697 mmHg 41%
    17:00 +9°C° 0 mm 1 mps 696 mmHg 47%
    18:00 +7°C° 0 mm 1 mps 696 mmHg 53%
    19:00 +7°C° 0 mm 1 mps 696 mmHg 54%
    20:00 +6°C° 0 mm 1 mps 696 mmHg 55%
    21:00 +6°C° 0 mm 1 mps 696 mmHg 56%
    22:00 +6°C° 0 mm 1 mps 695 mmHg 56%
    23:00 +6°C° 0 mm 1 mps 695 mmHg 56%

    22 November, Thursday

    Time Temperature Precipitation Wind Pressure Humidity
    00:00 +6°C° 0 mm 1 mps 695 mmHg 56%
    01:00 +6°C° 0 mm 1 mps 695 mmHg 57%
    02:00 +6°C° 0 mm 1 mps 694 mmHg 59%
    03:00 +6°C° 0 mm 1 mps 694 mmHg 61%
    04:00 +6°C° 0.1 mm 1 mps 694 mmHg 62%
    05:00 +6°C° 0.1 mm 1 mps 693 mmHg 63%
    06:00 +6°C° 0.1 mm 1 mps 693 mmHg 64%
    07:00 +7°C° 0 mm 1 mps 693 mmHg 63%
    08:00 +8°C° 0 mm 1 mps 693 mmHg 61%
    09:00 +9°C° 0 mm 1 mps 693 mmHg 59%
    10:00 +10°C° 0 mm 1 mps 693 mmHg 57%
    11:00 +11°C° 0 mm 1 mps 693 mmHg 55%
    12:00 +12°C° 0 mm 1 mps 693 mmHg 53%
    13:00 +11°C° 0.2 mm 1 mps 692 mmHg 57%
    14:00 +9°C° 0.2 mm 2 mps 692 mmHg 62%
    15:00 +9°C° 0.2 mm 2 mps 691 mmHg 67%
    16:00 +8°C° 0.2 mm 2 mps 691 mmHg 71%
    17:00 +7°C° 0.2 mm 2 mps 691 mmHg 75%
    18:00 +6°C° 0.2 mm 2 mps 691 mmHg 79%
    19:00 +5°C° 0.1 mm 2 mps 692 mmHg 79%
    20:00 +4°C° 0.1 mm 2 mps 692 mmHg 79%
    21:00 +4°C° 0.1 mm 2 mps 692 mmHg 78%
    22:00 +3°C° 0.1 mm 2 mps 692 mmHg 78%
    23:00 +3°C° 0.1 mm 2 mps 692 mmHg 78%

    23 November, Friday

    Time Temperature Precipitation Wind Pressure Humidity
    00:00 +2°C° 0.1 mm 2 mps 692 mmHg 78%
    01:00 +2°C° 0.2 mm 2 mps 692 mmHg 78%
    02:00 +2°C° 0.2 mm 2 mps 692 mmHg 79%
    03:00 +2°C° 0.2 mm 2 mps 692 mmHg 79%
    04:00 +2°C° 0.1 mm 2 mps 692 mmHg 79%
    05:00 +2°C° 0.1 mm 2 mps 692 mmHg 78%
    06:00 +2°C° 0.1 mm 2 mps 692 mmHg 78%
    07:00 +3°C° 0.2 mm 2 mps 693 mmHg 74%
    08:00 +4°C° 0.2 mm 2 mps 694 mmHg 71%
    09:00 +4°C° 0.2 mm 2 mps 694 mmHg 67%
    10:00 +4°C° 0.1 mm 3 mps 694 mmHg 64%
    11:00 +4°C° 0.1 mm 3 mps 694 mmHg 61%
    12:00 +5°C° 0.1 mm 3 mps 694 mmHg 58%
    13:00 +5°C° 0.1 mm 3 mps 694 mmHg 59%
    14:00 +4°C° 0.1 mm 3 mps 694 mmHg 59%
    15:00 +5°C° 0.1 mm 2 mps 694 mmHg 60%
    16:00 +4°C° 0 mm 2 mps 694 mmHg 65%
    17:00 +2°C° 0 mm 2 mps 694 mmHg 70%
    18:00 +2°C° 0 mm 1 mps 694 mmHg 76%
    19:00 +2°C° 0 mm 1 mps 695 mmHg 75%
    20:00 +2°C° 0 mm 1 mps 695 mmHg 75%
    21:00 +2°C° 0 mm 1 mps 695 mmHg 74%
    22:00 +2°C° 0 mm 1 mps 695 mmHg 73%
    23:00 +2°C° 0 mm 1 mps 695 mmHg 72%
    Show more